| time (UTC) | temp F | wind direction | speed MPH | gust MPH | rain 1hr in | rain 24hr in | rain mn in | humidity % | barometer mb |
| 20260831145914 | 83 | 313 | 4.0 | 5.0 | 0.00 | 0.00 | 0.00 | 48 | 1014.2 |
| 20260831144849 | 82 | 335 | 1.0 | 2.0 | 0.00 | 0.00 | 0.00 | 48 | 1013.8 |
| 20260831143839 | 85 | 329 | 0.0 | 1.0 | 0.00 | 0.00 | 0.00 | 38 | 1014.0 |
| 20260831142817 | 85 | 329 | 1.0 | 2.0 | 0.00 | 0.00 | 0.00 | 38 | 1014.1 |
| 20260831141754 | 84 | 356 | 2.0 | 3.0 | 0.00 | 0.00 | 0.00 | 37 | 1014.2 |
| 20260831140740 | 85 | 358 | 4.0 | 4.0 | 0.00 | 0.00 | 0.00 | 35 | 1014.3 |
| 20260831135722 | 85 | 10 | 2.0 | 3.0 | 0.00 | 0.00 | 0.00 | 35 | 1014.1 |
| 20260831134657 | 85 | 16 | 2.0 | 3.0 | 0.00 | 0.00 | 0.00 | 41 | 1014.2 |
| 20260831133639 | 85 | 344 | 2.0 | 3.0 | 0.00 | 0.00 | 0.00 | 36 | 1013.9 |
| 20260831132625 | 85 | 57 | 3.0 | 3.0 | 0.00 | 0.00 | 0.00 | 33 | 1014.2 |
| 20260831131602 | 85 | 354 | 4.0 | 5.0 | 0.00 | 0.00 | 0.00 | 32 | 1014.2 |
| 20260831130538 | 85 | 307 | 4.0 | 5.0 | 0.00 | 0.00 | 0.00 | 37 | 1014.2 |
| 20260831125514 | 86 | 127 | 4.0 | 5.0 | 0.00 | 0.00 | 0.00 | 36 | 1014.6 |
| 20260831124450 | 84 | 52 | 4.0 | 5.0 | 0.00 | 0.00 | 0.00 | 35 | 1014.4 |
| 20260831123439 | 84 | 319 | 1.0 | 2.0 | 0.00 | 0.00 | 0.00 | 36 | 1014.5 |
| 20260831122417 | 84 | 17 | 7.0 | 10.0 | 0.00 | 0.00 | 0.00 | 36 | 1014.6 |
| 20260831121354 | 84 | 43 | 5.0 | 6.0 | 0.00 | 0.00 | 0.00 | 37 | 1014.6 |
| 20260831120339 | 84 | 19 | 7.0 | 9.0 | 0.00 | 0.00 | 0.00 | 36 | 1014.7 |
| 20260831115323 | 84 | 356 | 1.0 | 2.0 | 0.00 | 0.00 | 0.00 | 40 | 1014.8 |
| 20260831114258 | 83 | 18 | 1.0 | 2.0 | 0.00 | 0.00 | 0.00 | 42 | 1014.5 |
| 20260831113240 | 84 | 339 | 1.0 | 2.0 | 0.00 | 0.00 | 0.00 | 41 | 1014.8 |
| 20260831112226 | 83 | 9 | 3.0 | 4.0 | 0.00 | 0.00 | 0.00 | 42 | 1014.8 |
| 20260831111202 | 83 | 317 | 2.0 | 2.0 | 0.00 | 0.00 | 0.00 | 42 | 1014.8 |
| 20260831110140 | 83 | 32 | 4.0 | 6.0 | 0.00 | 0.00 | 0.00 | 43 | 1014.8 |
| 20260831105129 | 82 | 5 | 2.0 | 3.0 | 0.00 | 0.00 | 0.00 | 46 | 1014.8 |
| 20260831104105 | 82 | 26 | 6.0 | 8.0 | 0.00 | 0.00 | 0.00 | 42 | 1014.8 |
| 20260831103041 | 82 | 295 | 2.0 | 3.0 | 0.00 | 0.00 | 0.00 | 47 | 1014.8 |
| 20260831102019 | 82 | 277 | 0.0 | 1.0 | 0.00 | 0.00 | 0.00 | 54 | 1015.0 |
| 20260831100953 | 80 | 277 | 0.0 | 0.0 | 0.00 | 0.00 | 0.00 | 55 | 1015.3 |
| 20260831095939 | 80 | 341 | 1.0 | 2.0 | 0.00 | 0.00 | 0.00 | 57 | 1015.2 |
| 20260831094922 | 79 | 277 | 0.0 | 1.0 | 0.00 | 0.00 | 0.00 | 61 | 1015.3 |
| 20260831093914 | 79 | 278 | 0.0 | 0.0 | 0.00 | 0.00 | 0.00 | 58 | 1015.5 |
| 20260831092849 | 78 | 278 | 0.0 | 1.0 | 0.00 | 0.00 | 0.00 | 59 | 1015.8 |
| 20260831091840 | 77 | 275 | 0.0 | 0.0 | 0.00 | 0.00 | 0.00 | 63 | 1015.7 |
| 20260831090818 | 78 | 262 | 0.0 | 1.0 | 0.00 | 0.00 | 0.00 | 59 | 1016.0 |
| 20260831085754 | 77 | 291 | 0.0 | 0.0 | 0.00 | 0.00 | 0.00 | 63 | 1016.1 |
| 20260831084745 | 76 | 267 | 1.0 | 3.0 | 0.00 | 0.00 | 0.00 | 65 | 1015.8 |
| 20260831083737 | 76 | 272 | 1.0 | 2.0 | 0.00 | 0.00 | 0.00 | 66 | 1015.9 |
| 20260831082729 | 75 | 232 | 3.0 | 5.0 | 0.00 | 0.00 | 0.00 | 66 | 1015.6 |
| 20260831081706 | 74 | 270 | 1.0 | 2.0 | 0.00 | 0.00 | 0.00 | 65 | 1015.4 |
| 20260831080642 | 74 | 284 | 3.0 | 4.0 | 0.00 | 0.00 | 0.00 | 63 | 1015.4 |
| 20260831075618 | 74 | 264 | 1.0 | 3.0 | 0.00 | 0.00 | 0.00 | 63 | 1015.5 |
| 20260831074610 | 73 | 248 | 3.0 | 4.0 | 0.00 | 0.00 | 0.00 | 64 | 1015.3 |
| 20260831073601 | 70 | 286 | 2.0 | 2.0 | 0.00 | 0.00 | 0.00 | 74 | 1015.4 |
| 20260831072540 | 71 | 264 | 0.0 | 1.0 | 0.00 | 0.00 | 0.00 | 70 | 1015.4 |
| 20260831071530 | 71 | 263 | 0.0 | 0.0 | 0.00 | 0.00 | 0.00 | 74 | 1015.4 |
| 20260831070506 | 69 | 264 | 0.0 | 0.0 | 0.00 | 0.00 | 0.00 | 79 | 1015.3 |
| 20260831065457 | 70 | 263 | 0.0 | 0.0 | 0.00 | 0.00 | 0.00 | 76 | 1015.3 |
| 20260831064434 | 66 | 264 | 0.0 | 0.0 | 0.00 | 0.00 | 0.00 | 79 | 1015.3 |
| 20260831063425 | 65 | 271 | 2.0 | 3.0 | 0.00 | 0.00 | 0.00 | 79 | 1015.5 |
| 20260831062402 | 63 | 292 | 0.0 | 0.0 | 0.00 | 0.00 | 0.00 | 81 | 1015.2 |
| 20260831061340 | 63 | 279 | 0.0 | 0.0 | 0.00 | 0.00 | 0.00 | 82 | 1015.3 |
| 20260831060330 | 62 | 293 | 0.0 | 1.0 | 0.00 | 0.00 | 0.00 | 82 | 1015.5 |
| 20260831055306 | 61 | 291 | 1.0 | 2.0 | 0.00 | 0.00 | 0.00 | 83 | 1015.2 |
| 20260831054258 | 58 | 292 | 1.0 | 2.0 | 0.00 | 0.00 | 0.00 | 86 | 1015.3 |
| 20260831053250 | 58 | 293 | 0.0 | 0.0 | 0.00 | 0.00 | 0.00 | 85 | 1015.2 |
| 20260831052240 | 58 | 297 | 3.0 | 3.0 | 0.00 | 0.00 | 0.00 | 85 | 1015.3 |
| 20260831051219 | 59 | 304 | 1.0 | 1.0 | 0.00 | 0.00 | 0.00 | 84 | 1015.1 |
| 20260831050210 | 58 | 295 | 0.0 | 0.0 | 0.00 | 0.00 | 0.00 | 83 | 1015.3 |
| 20260831045202 | 59 | 294 | 2.0 | 2.0 | 0.00 | 0.00 | 0.00 | 84 | 1015.1 |
| 20260831044140 | 58 | 302 | 1.0 | 1.0 | 0.00 | 0.00 | 0.00 | 83 | 1015.2 |
| 20260831043130 | 58 | 296 | 1.0 | 1.0 | 0.00 | 0.00 | 0.00 | 84 | 1015.2 |
| 20260831042121 | 57 | 304 | 1.0 | 2.0 | 0.00 | 0.00 | 0.00 | 87 | 1015.2 |
| 20260831041059 | 58 | 291 | 0.0 | 1.0 | 0.00 | 0.00 | 0.00 | 85 | 1015.2 |
| 20260831040034 | 58 | 295 | 0.0 | 0.0 | 0.00 | 0.00 | 0.00 | 85 | 1015.0 |
| 20260831035026 | 58 | 294 | 1.0 | 2.0 | 0.00 | 0.00 | 0.00 | 85 | 1015.1 |
| 20260831034002 | 58 | 295 | 1.0 | 2.0 | 0.00 | 0.00 | 0.00 | 85 | 1015.3 |
| 20260831032938 | 58 | 293 | 2.0 | 2.0 | 0.00 | 0.00 | 0.00 | 86 | 1015.0 |
| 20260831031914 | 58 | 292 | 1.0 | 1.0 | 0.00 | 0.00 | 0.00 | 86 | 1015.1 |
| 20260831030851 | 59 | 293 | 1.0 | 1.0 | 0.00 | 0.00 | 0.00 | 86 | 1015.2 |
| 20260831025840 | 59 | 294 | 1.0 | 1.0 | 0.00 | 0.00 | 0.00 | 86 | 1015.4 |
| 20260831024818 | 59 | 294 | 1.0 | 1.0 | 0.00 | 0.00 | 0.00 | 86 | 1015.3 |
| 20260831023754 | 59 | 293 | 0.0 | 0.0 | 0.00 | 0.00 | 0.00 | 88 | 1015.4 |
| 20260831022740 | 59 | 295 | 2.0 | 2.0 | 0.00 | 0.00 | 0.00 | 87 | 1015.6 |
| 20260831021722 | 59 | 293 | 2.0 | 2.0 | 0.00 | 0.00 | 0.00 | 89 | 1015.4 |
| 20260831020714 | 59 | 295 | 1.0 | 2.0 | 0.00 | 0.00 | 0.00 | 90 | 1015.4 |
| 20260831015650 | 59 | 293 | 1.0 | 1.0 | 0.00 | 0.00 | 0.00 | 91 | 1015.3 |
| 20260831014640 | 59 | 293 | 0.0 | 0.0 | 0.00 | 0.00 | 0.00 | 91 | 1015.5 |
| 20260831013619 | 59 | 293 | 0.0 | 0.0 | 0.00 | 0.00 | 0.00 | 90 | 1015.7 |
| 20260831012554 | 59 | 295 | 0.0 | 0.0 | 0.00 | 0.00 | 0.00 | 90 | 1015.6 |
| 20260831011540 | 60 | 293 | 0.0 | 0.0 | 0.00 | 0.00 | 0.00 | 91 | 1015.5 |
| 20260831010522 | 60 | 295 | 0.0 | 0.0 | 0.00 | 0.00 | 0.00 | 91 | 1015.3 |
| 20260831005458 | 60 | 293 | 0.0 | 0.0 | 0.00 | 0.00 | 0.00 | 93 | 1015.5 |
| 20260831004450 | 60 | 293 | 0.0 | 0.0 | 0.00 | 0.00 | 0.00 | 92 | 1015.5 |
| 20260831003441 | 60 | 292 | 0.0 | 0.0 | 0.00 | 0.00 | 0.00 | 93 | 1015.7 |
| 20260831002419 | 61 | 295 | 0.0 | 0.0 | 0.00 | 0.00 | 0.00 | 94 | 1016.0 |
| 20260831001355 | 60 | 293 | 0.0 | 0.0 | 0.00 | 0.00 | 0.00 | 95 | 1015.9 |
| 20260831000341 | 60 | 308 | 0.0 | 0.0 | 0.00 | 0.00 | 0.00 | 96 | 1015.8 |
| 20260830235322 | 60 | 279 | 1.0 | 1.0 | 0.00 | 0.00 | 0.00 | 95 | 1015.9 |
| 20260830234259 | 61 | 293 | 1.0 | 1.0 | 0.00 | 0.00 | 0.00 | 94 | 1016.1 |
| 20260830233240 | 61 | 292 | 0.0 | 0.0 | 0.00 | 0.00 | 0.00 | 95 | 1016.0 |
| 20260830232227 | 61 | 294 | 0.0 | 0.0 | 0.00 | 0.00 | 0.00 | 95 | 1016.0 |
| 20260830231202 | 61 | 293 | 1.0 | 1.0 | 0.00 | 0.00 | 0.00 | 94 | 1016.1 |
| 20260830230154 | 61 | 293 | 0.0 | 1.0 | 0.00 | 0.00 | 0.00 | 94 | 1015.9 |
| 20260830225141 | 62 | 293 | 0.0 | 0.0 | 0.00 | 0.00 | 0.00 | 92 | 1016.0 |
| 20260830224122 | 62 | 295 | 2.0 | 2.0 | 0.00 | 0.00 | 0.00 | 93 | 1016.0 |
| 20260830223058 | 62 | 293 | 0.0 | 1.0 | 0.00 | 0.00 | 0.00 | 92 | 1016.2 |
| 20260830222040 | 62 | 294 | 0.0 | 0.0 | 0.00 | 0.00 | 0.00 | 93 | 1016.2 |
| 20260830221026 | 62 | 295 | 1.0 | 1.0 | 0.00 | 0.00 | 0.00 | 92 | 1015.9 |
| 20260830220002 | 63 | 293 | 2.0 | 2.0 | 0.00 | 0.00 | 0.00 | 91 | 1016.1 |
| 20260830214938 | 63 | 293 | 2.0 | 2.0 | 0.00 | 0.00 | 0.00 | 91 | 1016.0 |
| 20260830213914 | 62 | 294 | 0.0 | 0.0 | 0.00 | 0.00 | 0.00 | 92 | 1016.0 |
| 20260830212851 | 62 | 293 | 0.0 | 0.0 | 0.00 | 0.00 | 0.00 | 92 | 1016.0 |
| 20260830211841 | 63 | 293 | 1.0 | 2.0 | 0.00 | 0.00 | 0.00 | 90 | 1015.9 |
| 20260830210819 | 63 | 293 | 1.0 | 2.0 | 0.00 | 0.00 | 0.00 | 91 | 1015.8 |
| 20260830205754 | 63 | 294 | 1.0 | 2.0 | 0.00 | 0.00 | 0.00 | 91 | 1015.8 |
| 20260830204740 | 63 | 295 | 0.0 | 0.0 | 0.00 | 0.00 | 0.00 | 90 | 1015.8 |
| 20260830203722 | 64 | 291 | 1.0 | 2.0 | 0.00 | 0.00 | 0.00 | 89 | 1015.6 |
| 20260830202658 | 64 | 296 | 0.0 | 0.0 | 0.00 | 0.00 | 0.00 | 90 | 1015.7 |
| 20260830201641 | 64 | 293 | 1.0 | 2.0 | 0.00 | 0.00 | 0.00 | 89 | 1015.8 |
| 20260830200626 | 64 | 294 | 2.0 | 2.0 | 0.00 | 0.00 | 0.00 | 88 | 1015.8 |
| 20260830195602 | 65 | 293 | 1.0 | 2.0 | 0.00 | 0.00 | 0.00 | 88 | 1015.6 |
| 20260830194538 | 65 | 294 | 2.0 | 2.0 | 0.00 | 0.00 | 0.00 | 88 | 1015.5 |
| 20260830193514 | 65 | 295 | 0.0 | 0.0 | 0.00 | 0.00 | 0.00 | 87 | 1015.4 |
| 20260830192451 | 65 | 296 | 1.0 | 2.0 | 0.00 | 0.00 | 0.00 | 88 | 1015.5 |
| 20260830191440 | 66 | 293 | 1.0 | 1.0 | 0.00 | 0.00 | 0.00 | 88 | 1015.1 |
| 20260830190419 | 66 | 294 | 1.0 | 1.0 | 0.00 | 0.00 | 0.00 | 87 | 1015.3 |
| 20260830185354 | 66 | 291 | 2.0 | 2.0 | 0.00 | 0.00 | 0.00 | 86 | 1015.3 |
| 20260830184341 | 67 | 295 | 2.0 | 2.0 | 0.00 | 0.00 | 0.00 | 86 | 1014.8 |
| 20260830183322 | 67 | 295 | 2.0 | 2.0 | 0.00 | 0.00 | 0.00 | 86 | 1015.0 |
| 20260830182259 | 67 | 293 | 2.0 | 2.0 | 0.00 | 0.00 | 0.00 | 87 | 1014.8 |
| 20260830181240 | 68 | 294 | 2.0 | 3.0 | 0.00 | 0.00 | 0.00 | 86 | 1014.5 |
| 20260830180226 | 68 | 296 | 2.0 | 3.0 | 0.00 | 0.00 | 0.00 | 86 | 1014.4 |
| 20260830175202 | 68 | 293 | 1.0 | 2.0 | 0.00 | 0.00 | 0.00 | 86 | 1014.5 |
| 20260830174138 | 69 | 296 | 3.0 | 3.0 | 0.00 | 0.00 | 0.00 | 85 | 1014.1 |
| 20260830173116 | 69 | 297 | 3.0 | 3.0 | 0.00 | 0.00 | 0.00 | 84 | 1014.2 |
| 20260830172050 | 70 | 295 | 3.0 | 3.0 | 0.00 | 0.00 | 0.00 | 84 | 1014.2 |
| 20260830171040 | 71 | 297 | 2.0 | 3.0 | 0.00 | 0.00 | 0.00 | 83 | 1014.3 |
| 20260830170022 | 72 | 296 | 2.0 | 3.0 | 0.00 | 0.00 | 0.00 | 82 | 1013.8 |
| 20260830165011 | 73 | 297 | 2.0 | 2.0 | 0.00 | 0.00 | 0.00 | 80 | 1014.2 |
| 20260830164002 | 73 | 304 | 2.0 | 3.0 | 0.00 | 0.00 | 0.00 | 80 | 1013.9 |
| 20260830162954 | 75 | 297 | 2.0 | 3.0 | 0.00 | 0.00 | 0.00 | 76 | 1014.1 |
| 20260830161947 | 75 | 311 | 2.0 | 2.0 | 0.00 | 0.00 | 0.00 | 72 | 1013.8 |
| 20260830160938 | 78 | 300 | 0.0 | 1.0 | 0.00 | 0.00 | 0.00 | 67 | 1014.0 |
| 20260830155931 | 79 | 294 | 2.0 | 2.0 | 0.00 | 0.00 | 0.00 | 69 | 1014.0 |
| 20260830154923 | 79 | 261 | 0.0 | 0.0 | 0.00 | 0.00 | 0.00 | 66 | 1013.9 |
| 20260830153915 | 79 | 257 | 0.0 | 1.0 | 0.00 | 0.00 | 0.00 | 63 | 1013.8 |
| 20260830152906 | 79 | 212 | 1.0 | 1.0 | 0.00 | 0.00 | 0.00 | 63 | 1014.1 |
| 20260830151859 | 80 | 313 | 0.0 | 1.0 | 0.00 | 0.00 | 0.00 | 62 | 1013.9 |